This is the latest recevied weather packets stored in our database for station/object KA1AL. If no packets are shown the sender has not sent any weather packets the latest 1 day(s).
| Time | Temp. | Humidity | Pressure | Rain* | Wind** | Luminosity | Snow |
|---|---|---|---|---|---|---|---|
| 1778064795 | 10.56° C | 99% | 1009.5 hPa | 0 mm | - | 40 W/m² | - |
| 1778063888 | 11.11° C | 99% | 1009.4 hPa | 0 mm | - | 24 W/m² | - |
| 1778063585 | 11.11° C | 99% | 1009.3 hPa | 0 mm | - | 38 W/m² | - |
| 1778062373 | 10.56° C | 98% | 1009 hPa | 0 mm | - | 14 W/m² | - |
| 1778062071 | 10.56° C | 99% | 1009.2 hPa | 0 mm | - | 15 W/m² | - |
| 1778061769 | 10.56° C | 99% | 1009.1 hPa | 0 mm | - | 10 W/m² | - |
| 1778061164 | 10.56° C | 99% | 1009.1 hPa | 0 mm | - | 13 W/m² | - |
| 1778060559 | 11.11° C | 98% | 1008.6 hPa | 0 mm | - | 2 W/m² | - |
| 1778059954 | 11.11° C | 98% | 1009.1 hPa | 0 mm | - | 2 W/m² | - |
| 1778059652 | 11.11° C | 97% | 1008.7 hPa | 0 mm | - | 2 W/m² | - |
| 1778058744 | 11.11° C | 98% | 1008.4 hPa | 0 mm | - | 0 W/m² | - |
| 1778058138 | 11.11° C | 98% | 1008.4 hPa | 0 mm | - | 0 W/m² | - |
| 1778055716 | 11.67° C | 98% | 1009.2 hPa | 0 mm | - | 0 W/m² | - |
| 1778055112 | 11.67° C | 99% | 1008.7 hPa | 0 mm | - | 0 W/m² | - |
| 1778054810 | 11.67° C | 98% | 1008.7 hPa | 0 mm | - | 0 W/m² | - |
| 1778054204 | 11.67° C | 98% | 1008.7 hPa | 0 mm | - | 0 W/m² | - |
| 1778053900 | 11.67° C | 99% | 1008.7 hPa | 0 mm | - | 0 W/m² | - |
| 1778053598 | 11.67° C | 99% | 1008.7 hPa | 0 mm | - | 0 W/m² | - |
| 1778053295 | 11.67° C | 99% | 1008.7 hPa | 0 mm | - | 0 W/m² | - |
| 1778052993 | 11.67° C | 99% | 1008.5 hPa | 0 mm | - | 0 W/m² | - |
| 1778052690 | 11.67° C | 99% | 1008.2 hPa | 0 mm | - | 0 W/m² | - |
| 1778052085 | 11.67° C | 99% | 1008.4 hPa | 0 mm | - | 0 W/m² | - |
| 1778050874 | 12.22° C | 99% | 1007.9 hPa | 0 mm | - | 0 W/m² | - |
| 1778050572 | 12.22° C | 99% | 1008 hPa | 0 mm | - | 0 W/m² | - |
| 1778049965 | 12.22° C | 99% | 1008.4 hPa | 0 mm | - | 0 W/m² | - |
* Rain latest hour (hover to see other rain measurements)
** Current wind speed in m/s (hover to see current wind gust speed)